Year,Month,Day,Hour,Minute,Value (Times are PST for temperature in C)
2005,09,24,00,00,7.80
2005,09,24,00,01,7.80
2005,09,24,00,02,7.70
2005,09,24,00,03,7.70
2005,09,24,00,04,7.70
2005,09,24,00,05,7.70
2005,09,24,00,06,7.70
2005,09,24,00,07,7.70
2005,09,24,00,08,7.70
2005,09,24,00,09,7.70
2005,09,24,00,10,7.60
2005,09,24,00,11,7.60
2005,09,24,00,12,7.60
2005,09,24,00,13,7.60
2005,09,24,00,14,7.60
2005,09,24,00,15,7.60
2005,09,24,00,16,7.50
2005,09,24,00,17,7.50
2005,09,24,00,18,7.50
2005,09,24,00,19,7.50
2005,09,24,00,20,7.50
2005,09,24,00,21,7.50
2005,09,24,00,22,7.50
2005,09,24,00,23,7.40
2005,09,24,00,24,7.40
2005,09,24,00,25,7.40
2005,09,24,00,26,7.40
2005,09,24,00,27,7.40
2005,09,24,00,28,7.30
2005,09,24,00,29,7.30
2005,09,24,00,30,7.30
2005,09,24,00,31,7.30
2005,09,24,00,32,7.30
2005,09,24,00,33,7.30
2005,09,24,00,34,7.30
2005,09,24,00,35,7.30
2005,09,24,00,36,7.30
2005,09,24,00,37,7.30
2005,09,24,00,38,7.30
2005,09,24,00,39,7.30
2005,09,24,00,40,7.30
2005,09,24,00,41,7.30
2005,09,24,00,42,7.30
2005,09,24,00,43,7.30
2005,09,24,00,44,7.30
2005,09,24,00,45,7.30
2005,09,24,00,46,7.20
2005,09,24,00,47,7.20
2005,09,24,00,48,7.20
2005,09,24,00,49,7.20
2005,09,24,00,50,7.20
2005,09,24,00,51,7.20
2005,09,24,00,52,7.20
2005,09,24,00,53,7.20
2005,09,24,00,54,7.10
2005,09,24,00,55,7.10
2005,09,24,00,56,7.10
2005,09,24,00,57,7.10
2005,09,24,00,58,7.10
2005,09,24,00,59,7.10
2005,09,24,01,00,7.10
2005,09,24,01,01,7.10
2005,09,24,01,02,7.10
2005,09,24,01,03,7.10
2005,09,24,01,04,7.10
2005,09,24,01,05,7.10
2005,09,24,01,06,7.10
2005,09,24,01,07,7.00
2005,09,24,01,08,7.00
2005,09,24,01,09,7.00
2005,09,24,01,10,7.00
2005,09,24,01,11,7.00
2005,09,24,01,12,7.00
2005,09,24,01,13,7.00
2005,09,24,01,14,6.90
2005,09,24,01,15,6.90
2005,09,24,01,16,6.90
2005,09,24,01,17,6.90
2005,09,24,01,18,6.90
2005,09,24,01,19,6.90
2005,09,24,01,20,6.90
2005,09,24,01,21,6.90
2005,09,24,01,22,6.90
2005,09,24,01,23,6.90
2005,09,24,01,24,6.90
2005,09,24,01,25,6.90
2005,09,24,01,26,6.80
2005,09,24,01,27,6.80
2005,09,24,01,28,6.80
2005,09,24,01,29,6.80
2005,09,24,01,30,6.80
2005,09,24,01,31,6.80
2005,09,24,01,32,6.80
2005,09,24,01,33,6.80
2005,09,24,01,34,6.80
2005,09,24,01,35,6.80
2005,09,24,01,36,6.80
2005,09,24,01,37,6.80
2005,09,24,01,38,6.80
2005,09,24,01,39,6.80
2005,09,24,01,40,6.80
2005,09,24,01,41,6.80
2005,09,24,01,42,6.80
2005,09,24,01,43,6.80
2005,09,24,01,44,6.80
2005,09,24,01,45,6.80
2005,09,24,01,46,6.80
2005,09,24,01,47,6.80
2005,09,24,01,48,6.80
2005,09,24,01,49,6.80
2005,09,24,01,50,6.80
2005,09,24,01,51,6.80
2005,09,24,01,52,6.80
2005,09,24,01,53,6.80
2005,09,24,01,54,6.80
2005,09,24,01,55,6.80
2005,09,24,01,56,6.80
2005,09,24,01,57,6.80
2005,09,24,01,58,6.90
2005,09,24,01,59,6.90
2005,09,24,02,00,6.90
2005,09,24,02,01,6.90
2005,09,24,02,02,6.90
2005,09,24,02,03,6.90
2005,09,24,02,04,6.90
2005,09,24,02,05,7.00
2005,09,24,02,06,7.00
2005,09,24,02,07,7.00
2005,09,24,02,08,7.00
2005,09,24,02,09,7.00
2005,09,24,02,10,7.00
2005,09,24,02,11,7.00
2005,09,24,02,12,7.00
2005,09,24,02,13,7.00
2005,09,24,02,14,6.90
2005,09,24,02,15,7.00
2005,09,24,02,16,7.00
2005,09,24,02,17,7.00
2005,09,24,02,18,7.00
2005,09,24,02,19,7.00
2005,09,24,02,20,7.00
2005,09,24,02,21,7.00
2005,09,24,02,22,7.00
2005,09,24,02,23,7.00
2005,09,24,02,24,7.00
2005,09,24,02,25,7.00
2005,09,24,02,26,7.00
2005,09,24,02,27,7.00
2005,09,24,02,28,6.90
2005,09,24,02,29,6.90
2005,09,24,02,30,6.90
2005,09,24,02,31,6.90
2005,09,24,02,32,6.80
2005,09,24,02,33,6.80
2005,09,24,02,34,6.90
2005,09,24,02,35,6.90
2005,09,24,02,36,6.90
2005,09,24,02,37,6.90
2005,09,24,02,38,6.90
2005,09,24,02,39,6.90
2005,09,24,02,40,6.90
2005,09,24,02,41,6.80
2005,09,24,02,42,6.80
2005,09,24,02,43,6.80
2005,09,24,02,44,6.80
2005,09,24,02,45,6.80
2005,09,24,02,46,6.70
2005,09,24,02,47,6.70
2005,09,24,02,48,6.70
2005,09,24,02,49,6.60
2005,09,24,02,50,6.60
2005,09,24,02,51,6.60
2005,09,24,02,52,6.60
2005,09,24,02,53,6.60
2005,09,24,02,54,6.60
2005,09,24,02,55,6.60
2005,09,24,02,56,6.40
2005,09,24,02,57,6.40
2005,09,24,02,58,6.40
2005,09,24,02,59,6.40
2005,09,24,03,00,6.40
2005,09,24,03,01,6.40
2005,09,24,03,02,6.40
2005,09,24,03,03,6.40
2005,09,24,03,04,6.40
2005,09,24,03,05,6.40
2005,09,24,03,06,6.40
2005,09,24,03,07,6.40
2005,09,24,03,08,6.30
2005,09,24,03,09,6.40
2005,09,24,03,10,6.40
2005,09,24,03,11,6.40
2005,09,24,03,12,6.40
2005,09,24,03,13,6.40
2005,09,24,03,14,6.40
2005,09,24,03,15,6.40
2005,09,24,03,16,6.40
2005,09,24,03,17,6.40
2005,09,24,03,18,6.40
2005,09,24,03,19,6.40
2005,09,24,03,20,6.40
2005,09,24,03,21,6.40
2005,09,24,03,22,6.40
2005,09,24,03,23,6.40
2005,09,24,03,24,6.40
2005,09,24,03,25,6.40
2005,09,24,03,26,6.40
2005,09,24,03,27,6.40
2005,09,24,03,28,6.40
2005,09,24,03,29,6.40
2005,09,24,03,30,6.40
2005,09,24,03,31,6.40
2005,09,24,03,32,6.40
2005,09,24,03,33,6.40
2005,09,24,03,34,6.40
2005,09,24,03,35,6.40
2005,09,24,03,36,6.40
2005,09,24,03,37,6.40
2005,09,24,03,38,6.40
2005,09,24,03,39,6.40
2005,09,24,03,40,6.30
2005,09,24,03,41,6.30
2005,09,24,03,42,6.30
2005,09,24,03,43,6.20
2005,09,24,03,44,6.20
2005,09,24,03,45,6.20
2005,09,24,03,46,6.20
2005,09,24,03,47,6.20
2005,09,24,03,48,6.20
2005,09,24,03,49,6.20
2005,09,24,03,50,6.20
2005,09,24,03,51,6.20
2005,09,24,03,52,6.20
2005,09,24,03,53,6.20
2005,09,24,03,54,6.20
2005,09,24,03,55,6.20
2005,09,24,03,56,6.20
2005,09,24,03,57,6.10
2005,09,24,03,58,6.10
2005,09,24,03,59,6.10
2005,09,24,04,00,6.10
2005,09,24,04,01,6.10
2005,09,24,04,02,6.10
2005,09,24,04,03,6.10
2005,09,24,04,04,6.10
2005,09,24,04,05,6.10
2005,09,24,04,06,6.00
2005,09,24,04,07,6.00
2005,09,24,04,08,6.10
2005,09,24,04,09,6.10
2005,09,24,04,10,6.00
2005,09,24,04,11,6.00
2005,09,24,04,12,6.00
2005,09,24,04,13,6.00
2005,09,24,04,14,6.00
2005,09,24,04,15,6.00
2005,09,24,04,16,6.00
2005,09,24,04,17,6.00
2005,09,24,04,18,6.00
2005,09,24,04,19,6.00
2005,09,24,04,20,6.00
2005,09,24,04,21,6.00
2005,09,24,04,22,5.90
2005,09,24,04,23,5.90
2005,09,24,04,24,5.90
2005,09,24,04,25,5.90
2005,09,24,04,26,5.90
2005,09,24,04,27,5.80
2005,09,24,04,28,5.80
2005,09,24,04,29,5.80
2005,09,24,04,30,5.80
2005,09,24,04,31,5.80
2005,09,24,04,32,5.80
2005,09,24,04,33,5.70
2005,09,24,04,34,5.70
2005,09,24,04,35,5.70
2005,09,24,04,36,5.70
2005,09,24,04,37,5.70
2005,09,24,04,38,5.70
2005,09,24,04,39,5.70
2005,09,24,04,40,5.70
2005,09,24,04,41,5.70
2005,09,24,04,42,5.70
2005,09,24,04,43,5.70
2005,09,24,04,44,5.70
2005,09,24,04,45,5.70
2005,09,24,04,46,5.70
2005,09,24,04,47,5.70
2005,09,24,04,48,5.70
2005,09,24,04,49,5.70
2005,09,24,04,50,5.70
2005,09,24,04,51,5.70
2005,09,24,04,52,5.70
2005,09,24,04,53,5.70
2005,09,24,04,54,5.70
2005,09,24,04,55,5.70
2005,09,24,04,56,5.60
2005,09,24,04,57,5.60
2005,09,24,04,58,5.60
2005,09,24,04,59,5.60
2005,09,24,05,00,5.60
2005,09,24,05,01,5.60
2005,09,24,05,02,5.60
2005,09,24,05,03,5.50
2005,09,24,05,04,5.50
2005,09,24,05,05,5.50
2005,09,24,05,06,5.50
2005,09,24,05,07,5.50
2005,09,24,05,08,5.50
2005,09,24,05,09,5.50
2005,09,24,05,10,5.50
2005,09,24,05,11,5.50
2005,09,24,05,12,5.50
2005,09,24,05,13,5.50
2005,09,24,05,14,5.50
2005,09,24,05,15,5.40
2005,09,24,05,16,5.40
2005,09,24,05,17,5.40
2005,09,24,05,18,5.40
2005,09,24,05,19,5.40
2005,09,24,05,20,5.40
2005,09,24,05,21,5.40
2005,09,24,05,22,5.40
2005,09,24,05,23,5.40
2005,09,24,05,24,5.40
2005,09,24,05,25,5.40
2005,09,24,05,26,5.40
2005,09,24,05,27,5.40
2005,09,24,05,28,5.40
2005,09,24,05,29,5.40
2005,09,24,05,30,5.40
2005,09,24,05,31,5.30
2005,09,24,05,32,5.30
2005,09,24,05,33,5.30
2005,09,24,05,34,5.30
2005,09,24,05,35,5.30
2005,09,24,05,36,5.30
2005,09,24,05,37,5.30
2005,09,24,05,38,5.30
2005,09,24,05,39,5.30
2005,09,24,05,40,5.30
2005,09,24,05,41,5.30
2005,09,24,05,42,5.30
2005,09,24,05,43,5.30
2005,09,24,05,44,5.30
2005,09,24,05,45,5.30
2005,09,24,05,46,5.30
2005,09,24,05,47,5.30
2005,09,24,05,48,5.30
2005,09,24,05,49,5.30
2005,09,24,05,50,5.30
2005,09,24,05,51,5.30
2005,09,24,05,52,5.30
2005,09,24,05,53,5.30
2005,09,24,05,54,5.30
2005,09,24,05,55,5.30
2005,09,24,05,56,5.30
2005,09,24,05,57,5.30
2005,09,24,05,58,5.30
2005,09,24,05,59,5.20
2005,09,24,06,00,5.20
2005,09,24,06,01,5.20
2005,09,24,06,02,5.20
2005,09,24,06,03,5.20
2005,09,24,06,04,5.10
2005,09,24,06,05,5.10
2005,09,24,06,06,5.10
2005,09,24,06,07,5.10
2005,09,24,06,08,5.10
2005,09,24,06,09,5.10
2005,09,24,06,10,5.10
2005,09,24,06,11,5.10
2005,09,24,06,12,5.10
2005,09,24,06,13,5.10
2005,09,24,06,14,5.10
2005,09,24,06,15,5.10
2005,09,24,06,16,5.10
2005,09,24,06,17,5.10
2005,09,24,06,18,5.10
2005,09,24,06,19,5.10
2005,09,24,06,20,5.10
2005,09,24,06,21,5.10
2005,09,24,06,22,5.10
2005,09,24,06,23,5.10
2005,09,24,06,24,5.10
2005,09,24,06,25,5.10
2005,09,24,06,26,5.10
2005,09,24,06,27,5.10
2005,09,24,06,28,5.10
2005,09,24,06,29,5.10
2005,09,24,06,30,5.10
2005,09,24,06,31,5.10
2005,09,24,06,32,5.20
2005,09,24,06,33,5.20
2005,09,24,06,34,5.20
2005,09,24,06,35,5.20
2005,09,24,06,36,5.20
2005,09,24,06,37,5.20
2005,09,24,06,38,5.20
2005,09,24,06,39,5.20
2005,09,24,06,40,5.20
2005,09,24,06,41,5.20
2005,09,24,06,42,5.20
2005,09,24,06,43,5.20
2005,09,24,06,44,5.30
2005,09,24,06,45,5.30
2005,09,24,06,46,5.30
2005,09,24,06,47,5.30
2005,09,24,06,48,5.20
2005,09,24,06,49,5.20
2005,09,24,06,50,5.20
2005,09,24,06,51,5.20
2005,09,24,06,52,5.20
2005,09,24,06,53,5.20
2005,09,24,06,54,5.20
2005,09,24,06,55,5.20
2005,09,24,06,56,5.20
2005,09,24,06,57,5.20
2005,09,24,06,58,5.20
2005,09,24,06,59,5.20
2005,09,24,07,00,5.20
2005,09,24,07,01,5.30
2005,09,24,07,02,5.30
2005,09,24,07,03,5.30
2005,09,24,07,04,5.30
2005,09,24,07,05,5.30
2005,09,24,07,06,5.30
2005,09,24,07,07,5.30
2005,09,24,07,08,5.30
2005,09,24,07,09,5.40
2005,09,24,07,10,5.40
2005,09,24,07,11,5.40
2005,09,24,07,12,5.40
2005,09,24,07,13,5.50
2005,09,24,07,14,5.50
2005,09,24,07,15,5.50
2005,09,24,07,16,5.50
2005,09,24,07,17,5.60
2005,09,24,07,18,5.60
2005,09,24,07,19,5.70
2005,09,24,07,20,5.70
2005,09,24,07,21,5.70
2005,09,24,07,22,5.70
2005,09,24,07,23,5.80
2005,09,24,07,24,5.80
2005,09,24,07,25,5.80
2005,09,24,07,26,5.80
2005,09,24,07,27,5.80
2005,09,24,07,28,5.80
2005,09,24,07,29,5.80
2005,09,24,07,30,5.80
2005,09,24,07,31,5.80
2005,09,24,07,32,5.80
2005,09,24,07,33,5.80
2005,09,24,07,34,5.80
2005,09,24,07,35,5.80
2005,09,24,07,36,5.80
2005,09,24,07,37,5.90
2005,09,24,07,38,5.90
2005,09,24,07,39,6.00
2005,09,24,07,40,6.00
2005,09,24,07,41,6.00
2005,09,24,07,42,6.00
2005,09,24,07,43,6.10
2005,09,24,07,44,6.10
2005,09,24,07,45,6.20
2005,09,24,07,46,6.20
2005,09,24,07,47,6.20
2005,09,24,07,48,6.30
2005,09,24,07,49,6.30
2005,09,24,07,50,6.30
2005,09,24,07,51,6.40
2005,09,24,07,52,6.40
2005,09,24,07,53,6.40
2005,09,24,07,54,6.50
2005,09,24,07,55,6.60
2005,09,24,07,56,6.70
2005,09,24,07,57,6.70
2005,09,24,07,58,6.80
2005,09,24,07,59,6.90
2005,09,24,08,00,7.10
2005,09,24,08,01,7.20
2005,09,24,08,02,7.30
2005,09,24,08,03,7.30
2005,09,24,08,04,7.50
2005,09,24,08,05,7.50
2005,09,24,08,06,7.60
2005,09,24,08,07,7.70
2005,09,24,08,08,7.80
2005,09,24,08,09,7.80
2005,09,24,08,10,7.80
2005,09,24,08,11,7.90
2005,09,24,08,12,7.90
2005,09,24,08,13,8.00
2005,09,24,08,14,8.10
2005,09,24,08,15,8.10
2005,09,24,08,16,8.20
2005,09,24,08,17,8.20
2005,09,24,08,18,8.30
2005,09,24,08,19,8.40
2005,09,24,08,20,8.50
2005,09,24,08,21,8.60
2005,09,24,08,22,8.70
2005,09,24,08,23,8.80
2005,09,24,08,24,8.90
2005,09,24,08,25,8.90
2005,09,24,08,26,9.00
2005,09,24,08,27,9.10
2005,09,24,08,28,9.20
2005,09,24,08,29,9.20
2005,09,24,08,30,9.40
2005,09,24,08,31,9.40
2005,09,24,08,32,9.50
2005,09,24,08,33,9.60
2005,09,24,08,34,9.70
2005,09,24,08,35,9.70
2005,09,24,08,36,9.80
2005,09,24,08,37,9.90
2005,09,24,08,38,9.90
2005,09,24,08,39,10.10
2005,09,24,08,40,10.10
2005,09,24,08,41,10.20
2005,09,24,08,42,10.20
2005,09,24,08,43,10.30
2005,09,24,08,44,10.40
2005,09,24,08,45,10.40
2005,09,24,08,46,10.50
2005,09,24,08,47,10.60
2005,09,24,08,48,10.60
2005,09,24,08,49,10.70
2005,09,24,08,50,10.70
2005,09,24,08,51,10.80
2005,09,24,08,52,10.90
2005,09,24,08,53,11.00
2005,09,24,08,54,11.10
2005,09,24,08,55,11.20
2005,09,24,08,56,11.20
2005,09,24,08,57,11.30
2005,09,24,08,58,11.30
2005,09,24,08,59,11.30
2005,09,24,09,00,11.40
2005,09,24,09,01,11.40
2005,09,24,09,02,11.40
2005,09,24,09,03,11.40
2005,09,24,09,04,11.60
2005,09,24,09,05,11.60
2005,09,24,09,06,11.60
2005,09,24,09,07,11.60
2005,09,24,09,08,11.60
2005,09,24,09,09,11.70
2005,09,24,09,10,11.70
2005,09,24,09,11,11.80
2005,09,24,09,12,11.80
2005,09,24,09,13,11.80
2005,09,24,09,14,11.80
2005,09,24,09,15,11.80
2005,09,24,09,16,11.80
2005,09,24,09,17,11.80
2005,09,24,09,18,11.90
2005,09,24,09,19,11.90
2005,09,24,09,20,12.00
2005,09,24,09,21,12.00
2005,09,24,09,22,12.00
2005,09,24,09,23,12.10
2005,09,24,09,24,12.10
2005,09,24,09,25,12.10
2005,09,24,09,26,12.10
2005,09,24,09,27,12.10
2005,09,24,09,28,12.20
2005,09,24,09,29,12.20
2005,09,24,09,30,12.20
2005,09,24,09,31,12.30
2005,09,24,09,32,12.30
2005,09,24,09,33,12.30
2005,09,24,09,34,12.30
2005,09,24,09,35,12.30
2005,09,24,09,36,12.40
2005,09,24,09,37,12.40
2005,09,24,09,38,12.40
2005,09,24,09,39,12.40
2005,09,24,09,40,12.40
2005,09,24,09,41,12.40
2005,09,24,09,42,12.40
2005,09,24,09,43,12.40
2005,09,24,09,44,12.50
2005,09,24,09,45,12.50
2005,09,24,09,46,12.50
2005,09,24,09,47,12.50
2005,09,24,09,48,12.50
2005,09,24,09,49,12.50
2005,09,24,09,50,12.60
2005,09,24,09,51,12.60
2005,09,24,09,52,12.60
2005,09,24,09,53,12.60
2005,09,24,09,54,12.60
2005,09,24,09,55,12.60
2005,09,24,09,56,12.60
2005,09,24,09,57,12.70
2005,09,24,09,58,12.70
2005,09,24,09,59,12.70
2005,09,24,10,00,12.80
2005,09,24,10,01,12.80
2005,09,24,10,02,12.80
2005,09,24,10,03,12.80
2005,09,24,10,04,12.80
2005,09,24,10,05,12.80
2005,09,24,10,06,12.80
2005,09,24,10,07,12.80
2005,09,24,10,08,12.80
2005,09,24,10,09,12.80
2005,09,24,10,10,12.80
2005,09,24,10,11,12.80
2005,09,24,10,12,12.80
2005,09,24,10,13,12.90
2005,09,24,10,14,12.90
2005,09,24,10,15,12.90
2005,09,24,10,16,12.90
2005,09,24,10,17,12.90
2005,09,24,10,18,13.00
2005,09,24,10,19,13.00
2005,09,24,10,20,13.00
2005,09,24,10,21,13.10
2005,09,24,10,22,13.10
2005,09,24,10,23,13.10
2005,09,24,10,24,13.10
2005,09,24,10,25,13.20
2005,09,24,10,26,13.20
2005,09,24,10,27,13.30
2005,09,24,10,28,13.30
2005,09,24,10,29,13.40
2005,09,24,10,30,13.50
2005,09,24,10,31,13.50
2005,09,24,10,32,13.50
2005,09,24,10,33,13.60
2005,09,24,10,34,13.70
2005,09,24,10,35,13.70
2005,09,24,10,36,13.70
2005,09,24,10,37,13.70
2005,09,24,10,38,13.70
2005,09,24,10,39,13.80
2005,09,24,10,40,13.80
2005,09,24,10,41,13.90
2005,09,24,10,42,13.90
2005,09,24,10,43,14.00
2005,09,24,10,44,14.00
2005,09,24,10,45,14.10
2005,09,24,10,46,14.10
2005,09,24,10,47,14.10
2005,09,24,10,48,14.10
2005,09,24,10,49,14.10
2005,09,24,10,50,14.10
2005,09,24,10,51,14.00
2005,09,24,10,52,14.00
2005,09,24,10,53,13.90
2005,09,24,10,54,13.90
2005,09,24,10,55,13.90
2005,09,24,10,56,13.90
2005,09,24,10,57,13.90
2005,09,24,10,58,13.90
2005,09,24,10,59,13.90
2005,09,24,11,00,13.90
2005,09,24,11,01,13.90
2005,09,24,11,02,13.90
2005,09,24,11,03,13.90
2005,09,24,11,04,13.90
2005,09,24,11,05,13.90
2005,09,24,11,06,13.90
2005,09,24,11,07,14.00
2005,09,24,11,08,14.10
2005,09,24,11,09,14.10
2005,09,24,11,10,14.20
2005,09,24,11,11,14.20
2005,09,24,11,12,14.30
2005,09,24,11,13,14.40
2005,09,24,11,14,14.50
2005,09,24,11,15,14.50
2005,09,24,11,16,14.50
2005,09,24,11,17,14.40
2005,09,24,11,18,14.50
2005,09,24,11,19,14.50
2005,09,24,11,20,14.50
2005,09,24,11,21,14.50
2005,09,24,11,22,14.50
2005,09,24,11,23,14.40
2005,09,24,11,24,14.40
2005,09,24,11,25,14.40
2005,09,24,11,26,14.40
2005,09,24,11,27,14.40
2005,09,24,11,28,14.50
2005,09,24,11,29,14.60
2005,09,24,11,30,14.60
2005,09,24,11,31,14.70
2005,09,24,11,32,14.80
2005,09,24,11,33,14.70
2005,09,24,11,34,14.60
2005,09,24,11,35,14.60
2005,09,24,11,36,14.50
2005,09,24,11,37,14.50
2005,09,24,11,38,14.50
2005,09,24,11,39,14.60
2005,09,24,11,40,14.70
2005,09,24,11,41,14.80
2005,09,24,11,42,14.80
2005,09,24,11,43,14.80
2005,09,24,11,44,14.80
2005,09,24,11,45,14.80
2005,09,24,11,46,14.80
2005,09,24,11,47,14.80
2005,09,24,11,48,14.90
2005,09,24,11,49,14.90
2005,09,24,11,50,14.90
2005,09,24,11,51,14.90
2005,09,24,11,52,14.90
2005,09,24,11,53,14.80
2005,09,24,11,54,14.80
2005,09,24,11,55,14.80
2005,09,24,11,56,14.80
2005,09,24,11,57,14.70
2005,09,24,11,58,14.70
2005,09,24,11,59,14.70
2005,09,24,12,00,14.70
2005,09,24,12,01,14.70
2005,09,24,12,02,14.70
2005,09,24,12,03,14.70
2005,09,24,12,04,14.60
2005,09,24,12,05,14.60
2005,09,24,12,06,14.60
2005,09,24,12,07,14.70
2005,09,24,12,08,14.70
2005,09,24,12,09,14.70
2005,09,24,12,10,14.80
2005,09,24,12,11,14.80
2005,09,24,12,12,14.80
2005,09,24,12,13,14.80
2005,09,24,12,14,14.80
2005,09,24,12,15,14.80
2005,09,24,12,16,14.90
2005,09,24,12,17,14.90
2005,09,24,12,18,14.90
2005,09,24,12,19,14.90
2005,09,24,12,20,14.90
2005,09,24,12,21,14.90
2005,09,24,12,22,15.00
2005,09,24,12,23,15.00
2005,09,24,12,24,15.10
2005,09,24,12,25,15.20
2005,09,24,12,26,15.20
2005,09,24,12,27,15.30
2005,09,24,12,28,15.40
2005,09,24,12,29,15.40
2005,09,24,12,30,15.50
2005,09,24,12,31,15.50
2005,09,24,12,32,15.40
2005,09,24,12,33,15.40
2005,09,24,12,34,15.40
2005,09,24,12,35,15.40
2005,09,24,12,36,15.30
2005,09,24,12,37,15.40
2005,09,24,12,38,15.40
2005,09,24,12,39,15.50
2005,09,24,12,40,15.50
2005,09,24,12,41,15.60
2005,09,24,12,42,15.60
2005,09,24,12,43,15.60
2005,09,24,12,44,15.60
2005,09,24,12,45,15.70
2005,09,24,12,46,15.70
2005,09,24,12,47,15.70
2005,09,24,12,48,15.60
2005,09,24,12,49,15.70
2005,09,24,12,50,15.60
2005,09,24,12,51,15.60
2005,09,24,12,52,15.70
2005,09,24,12,53,15.80
2005,09,24,12,54,15.80
2005,09,24,12,55,15.90
2005,09,24,12,56,16.10
2005,09,24,12,57,16.10
2005,09,24,12,58,16.20
2005,09,24,12,59,16.20
2005,09,24,13,00,16.20
2005,09,24,13,01,16.20
2005,09,24,13,02,16.20
2005,09,24,13,03,16.30
2005,09,24,13,04,16.30
2005,09,24,13,05,16.20
2005,09,24,13,06,16.20
2005,09,24,13,07,16.20
2005,09,24,13,08,16.10
2005,09,24,13,09,16.10
2005,09,24,13,10,16.10
2005,09,24,13,11,16.10
2005,09,24,13,12,16.00
2005,09,24,13,13,15.80
2005,09,24,13,14,15.80
2005,09,24,13,15,15.90
2005,09,24,13,16,15.90
2005,09,24,13,17,15.90
2005,09,24,13,18,16.00
2005,09,24,13,19,15.90
2005,09,24,13,20,15.90
2005,09,24,13,21,15.90
2005,09,24,13,22,15.90
2005,09,24,13,23,16.00
2005,09,24,13,24,16.10
2005,09,24,13,25,16.10
2005,09,24,13,26,16.20
2005,09,24,13,27,16.20
2005,09,24,13,28,16.30
2005,09,24,13,29,16.30
2005,09,24,13,30,16.40
2005,09,24,13,31,16.40
2005,09,24,13,32,16.40
2005,09,24,13,33,16.40
2005,09,24,13,34,16.40
2005,09,24,13,35,16.40
2005,09,24,13,36,16.50
2005,09,24,13,37,16.50
2005,09,24,13,38,16.40
2005,09,24,13,39,16.40
2005,09,24,13,40,16.40
2005,09,24,13,41,16.30
2005,09,24,13,42,16.30
2005,09,24,13,43,16.30
2005,09,24,13,44,16.30
2005,09,24,13,45,16.30
2005,09,24,13,46,16.40
2005,09,24,13,47,16.40
2005,09,24,13,48,16.40
2005,09,24,13,49,16.40
2005,09,24,13,50,16.40
2005,09,24,13,51,16.60
2005,09,24,13,52,16.70
2005,09,24,13,53,16.70
2005,09,24,13,54,16.90
2005,09,24,13,55,17.00
2005,09,24,13,56,17.00
2005,09,24,13,57,17.10
2005,09,24,13,58,17.20
2005,09,24,13,59,17.20
2005,09,24,14,00,17.30
2005,09,24,14,01,17.30
2005,09,24,14,02,17.30
2005,09,24,14,03,17.40
2005,09,24,14,04,17.40
2005,09,24,14,05,17.40
2005,09,24,14,06,17.50
2005,09,24,14,07,17.50
2005,09,24,14,08,17.50
2005,09,24,14,09,17.40
2005,09,24,14,10,17.30
2005,09,24,14,11,17.30
2005,09,24,14,12,17.20
2005,09,24,14,13,17.10
2005,09,24,14,14,17.00
2005,09,24,14,15,17.00
2005,09,24,14,16,16.90
2005,09,24,14,17,16.80
2005,09,24,14,18,16.70
2005,09,24,14,19,16.70
2005,09,24,14,20,16.70
2005,09,24,14,21,16.70
2005,09,24,14,22,16.80
2005,09,24,14,23,16.80
2005,09,24,14,24,16.90
2005,09,24,14,25,17.00
2005,09,24,14,26,17.00
2005,09,24,14,27,17.10
2005,09,24,14,28,17.20
2005,09,24,14,29,17.30
2005,09,24,14,30,17.30
2005,09,24,14,31,17.40
2005,09,24,14,32,17.40
2005,09,24,14,33,17.40
2005,09,24,14,34,17.40
2005,09,24,14,35,17.40
2005,09,24,14,36,17.50
2005,09,24,14,37,17.50
2005,09,24,14,38,17.50
2005,09,24,14,39,17.60
2005,09,24,14,40,17.70
2005,09,24,14,41,17.70
2005,09,24,14,42,17.80
2005,09,24,14,43,17.90
2005,09,24,14,44,17.90
2005,09,24,14,45,17.90
2005,09,24,14,46,17.90
2005,09,24,14,47,18.10
2005,09,24,14,48,18.10
2005,09,24,14,49,18.10
2005,09,24,14,50,18.20
2005,09,24,14,51,18.10
2005,09,24,14,52,18.10
2005,09,24,14,53,18.10
2005,09,24,14,54,18.20
2005,09,24,14,55,18.10
2005,09,24,14,56,17.70
2005,09,24,14,57,17.50
2005,09,24,14,58,17.40
2005,09,24,14,59,17.40
2005,09,24,15,00,17.50
2005,09,24,15,01,17.60
2005,09,24,15,02,17.60
2005,09,24,15,03,17.70
2005,09,24,15,04,17.80
2005,09,24,15,05,17.80
2005,09,24,15,06,17.80
2005,09,24,15,07,17.80
2005,09,24,15,08,17.90
2005,09,24,15,09,17.90
2005,09,24,15,10,17.90
2005,09,24,15,11,18.00
2005,09,24,15,12,18.10
2005,09,24,15,13,18.10
2005,09,24,15,14,18.20
2005,09,24,15,15,18.20
2005,09,24,15,16,18.20
2005,09,24,15,17,18.20
2005,09,24,15,18,18.20
2005,09,24,15,19,18.20
2005,09,24,15,20,18.10
2005,09,24,15,21,18.00
2005,09,24,15,22,17.90
2005,09,24,15,23,17.90
2005,09,24,15,24,17.90
2005,09,24,15,25,17.90
2005,09,24,15,26,17.90
2005,09,24,15,27,17.90
2005,09,24,15,28,17.90
2005,09,24,15,29,17.80
2005,09,24,15,30,17.70
2005,09,24,15,31,17.70
2005,09,24,15,32,17.70
2005,09,24,15,33,17.70
2005,09,24,15,34,17.70
2005,09,24,15,35,17.70
2005,09,24,15,36,17.80
2005,09,24,15,37,17.80
2005,09,24,15,38,17.80
2005,09,24,15,39,17.80
2005,09,24,15,40,17.70
2005,09,24,15,41,17.70
2005,09,24,15,42,17.70
2005,09,24,15,43,17.70
2005,09,24,15,44,17.70
2005,09,24,15,45,17.80
2005,09,24,15,46,17.80
2005,09,24,15,47,17.80
2005,09,24,15,48,17.80
2005,09,24,15,49,17.90
2005,09,24,15,50,17.80
2005,09,24,15,51,17.80
2005,09,24,15,52,17.80
2005,09,24,15,53,17.80
2005,09,24,15,54,17.80
2005,09,24,15,55,17.80
2005,09,24,15,56,17.90
2005,09,24,15,57,17.90
2005,09,24,15,58,18.00
2005,09,24,15,59,18.10
2005,09,24,16,00,18.00
2005,09,24,16,01,17.90
2005,09,24,16,02,17.90
2005,09,24,16,03,17.90
2005,09,24,16,04,17.80
2005,09,24,16,05,17.80
2005,09,24,16,06,17.80
2005,09,24,16,07,17.90
2005,09,24,16,08,17.90
2005,09,24,16,09,18.10
2005,09,24,16,10,18.10
2005,09,24,16,11,18.10
2005,09,24,16,12,18.20
2005,09,24,16,13,18.20
2005,09,24,16,14,18.30
2005,09,24,16,15,18.30
2005,09,24,16,16,18.40
2005,09,24,16,17,18.40
2005,09,24,16,18,18.50
2005,09,24,16,19,18.50
2005,09,24,16,20,18.50
2005,09,24,16,21,18.60
2005,09,24,16,22,18.60
2005,09,24,16,23,18.60
2005,09,24,16,24,18.50
2005,09,24,16,25,18.50
2005,09,24,16,26,18.40
2005,09,24,16,27,18.40
2005,09,24,16,28,18.40
2005,09,24,16,29,18.30
2005,09,24,16,30,18.10
2005,09,24,16,31,18.10
2005,09,24,16,32,18.10
2005,09,24,16,33,18.10
2005,09,24,16,34,18.00
2005,09,24,16,35,17.90
2005,09,24,16,36,17.90
2005,09,24,16,37,17.90
2005,09,24,16,38,18.00
2005,09,24,16,39,18.10
2005,09,24,16,40,18.10
2005,09,24,16,41,18.10
2005,09,24,16,42,18.20
2005,09,24,16,43,18.20
2005,09,24,16,44,18.20
2005,09,24,16,45,18.20
2005,09,24,16,46,18.20
2005,09,24,16,47,18.30
2005,09,24,16,48,18.30
2005,09,24,16,49,18.30
2005,09,24,16,50,18.40
2005,09,24,16,51,18.40
2005,09,24,16,52,18.30
2005,09,24,16,53,18.30
2005,09,24,16,54,18.20
2005,09,24,16,55,18.20
2005,09,24,16,56,18.20
2005,09,24,16,57,18.20
2005,09,24,16,58,18.20
2005,09,24,16,59,18.20
2005,09,24,17,00,18.20
2005,09,24,17,01,18.20
2005,09,24,17,02,18.20
2005,09,24,17,03,18.20
2005,09,24,17,04,18.30
2005,09,24,17,05,18.30
2005,09,24,17,06,18.30
2005,09,24,17,07,18.30
2005,09,24,17,08,18.30
2005,09,24,17,09,18.30
2005,09,24,17,10,18.30
2005,09,24,17,11,18.30
2005,09,24,17,12,18.30
2005,09,24,17,13,18.20
2005,09,24,17,14,18.20
2005,09,24,17,15,18.30
2005,09,24,17,16,18.30
2005,09,24,17,17,18.30
2005,09,24,17,18,18.30
2005,09,24,17,19,18.30
2005,09,24,17,20,18.20
2005,09,24,17,21,18.30
2005,09,24,17,22,18.30
2005,09,24,17,23,18.20
2005,09,24,17,24,18.20
2005,09,24,17,25,18.20
2005,09,24,17,26,18.20
2005,09,24,17,27,18.30
2005,09,24,17,28,18.30
2005,09,24,17,29,18.40
2005,09,24,17,30,18.40
2005,09,24,17,31,18.50
2005,09,24,17,32,18.60
2005,09,24,17,33,18.60
2005,09,24,17,34,18.60
2005,09,24,17,35,18.50
2005,09,24,17,36,18.50
2005,09,24,17,37,18.40
2005,09,24,17,38,18.40
2005,09,24,17,39,18.30
2005,09,24,17,40,18.20
2005,09,24,17,41,18.20
2005,09,24,17,42,18.20